Regional Weather Roundup
Issued by NWS Glasgow, MT

Home | Current Version | Previous Version | Text Only | Print | Product List | Glossary On
Versions: 1 2 3 4 5 6 7 8 9 10 11 12 13 14 15 16 17 18 19 20 21 22 23 24 25 26 27 28
000
ASUS45 KGGW 170415
RWRGGW
HOURLY WEATHER ROUNDUP FOR NORTHEAST MONTANA
NATIONAL WEATHER SERVICE GLASGOW MONTANA
1000 PM MDT WED APR 16 2014

NOTE: "FAIR" INDICATES FEW OR NO CLOUDS BELOW 12,000 FEET WITH NO
SIGNIFICANT WEATHER AND/OR OBSTRUCTIONS TO VISISBILITY.

NORTHEAST MONTANA


CITY           SKY/WX    TMP DP  RH WIND       PRES   REMARKS
GLASGOW        PTCLDY    28  19  69 E14       30.19R
PLENTYWOOD       N/A     27  23  85 E3          N/A
WOLF POINT     CLOUDY    30  19  63 E10       30.24R
JORDAN           N/A     33  21  61 E16       30.13S
WINNETT          N/A     37  25  61 E5          N/A
SIDNEY         CLOUDY    28  19  69 SE10      30.25S
GLENDIVE       CLOUDY    28  21  74 E12       30.20S

FORT PECK REPORTS


CITY           SKY/WX    TMP DP  RH WIND       PRES   REMARKS
FORT PECK        N/A     30  21  69 E14         N/A
THE PINES        N/A     31  22  69 E6          N/A

SOUTHEAST MONTANA


CITY           SKY/WX    TMP DP  RH WIND       PRES   REMARKS
BILLINGS       MOCLDY    38  32  79 NE6       30.06R
MILES CITY     CLOUDY    34  24  67 NE10      30.13R
BAKER          CLOUDY    30  23  75 SE16      30.16R
LIVINGSTON     CLOUDY    38  32  79 E16       30.00R

CENTRAL MONTANA


CITY           SKY/WX    TMP DP  RH WIND       PRES   REMARKS
HAVRE          MOCLDY    36  24  62 E14       30.02F
LEWISTOWN      LGT SNOW  33  32  96 SW3       30.03R FOG
GREAT FALLS    CLEAR     35  32  88 SE9       29.97S
CUT BANK       MOCLDY    36  31  82 SE12      29.94F
HELENA         PTCLDY    42  26  53 SW5       29.98R
BUTTE          MOCLDY    38  20  48 NW5       30.00R
BOZEMAN        CLOUDY    39  28  64 CALM      29.99R

WESTERN MONTANA


CITY           SKY/WX    TMP DP  RH WIND       PRES   REMARKS
MISSOULA       CLOUDY    44  32  62 CALM      30.00S
KALISPELL      NOT AVBL

NORTH DAKOTA


CITY           SKY/WX    TMP DP  RH WIND       PRES   REMARKS
WILLISTON        N/A    N/A N/A N/A MISG      30.27S
DICKINSON      CLOUDY    27  20  75 E8        30.19S
MINOT          CLOUDY    26  15  63 NE9       30.28S
BISMARCK       CLOUDY    30  15  53 NE8       30.26R

SOUTHERN SASKATCHEWAN


CITY           SKY/WX    TMP DP  RH WIND       PRES   REMARKS
REGINA         FLURRIES  27  21  80 SE9       30.28F
ESTEVAN        PTCLDY    23  18  80 E7        30.30R
SWIFT CURRENT  FLURRIES  25  23  93 SE17G26   30.13S




USA.gov is the U.S. government's official web portal to all federal, state and local government web resources and services.